カタログに戻る

YAOGAN 2

運用中軍事SSO
NORAD 31490·PAYLOAD·🇨🇳 China

打ち上げ May 25, 2007 から Jiuquan Satellite Launch Center

Loading…

次のパス (今後24時間)

TLE

最新Source: Space-Track

元期: Sep 14, 2026, 00:45 UTC

1 31490U 07019A   26257.03187905  .00000580  00000-0  78726-4 0  9996
2 31490  98.2511 120.5213 0020324 350.7931   9.2906 14.82780534 40785

AllMySatでYAOGAN 2をリアルタイム追跡

Download on the App Store